Time,TemperatureF,DewpointF,PressureIn,WindDirection,WindDirectionDegrees,WindSpeedMPH,WindSpeedGustMPH,Humidity,HourlyPrecipIn,Conditions,Clouds,dailyrainin,SoftwareType,DateUTC
2013-04-21 00:02:00,44.0,-99.9,-100.00,NNE,25,0.0,0.0,-999,-99.99,,,-99.99,,2013-04-21 05:02:00,
2013-04-21 00:12:00,44.0,-99.9,-100.00,NNE,25,0.0,0.0,-999,-99.99,,,-99.99,,2013-04-21 05:12:00,
2013-04-21 00:22:00,44.0,-99.9,-100.00,NNE,25,0.0,0.0,-999,-99.99,,,-99.99,,2013-04-21 05:22:00,
2013-04-21 00:32:00,43.0,-99.9,-100.00,NNE,25,0.0,0.0,-999,-99.99,,,-99.99,,2013-04-21 05:32:00,
2013-04-21 00:43:00,43.0,-99.9,-100.00,NNE,25,0.0,0.0,-999,-99.99,,,-99.99,,2013-04-21 05:43:00,
2013-04-21 00:52:00,43.0,-99.9,-100.00,NNE,25,0.0,0.0,-999,-99.99,,,-99.99,,2013-04-21 05:52:00,
2013-04-21 01:02:00,43.0,-99.9,-100.00,NNE,25,0.0,0.0,-999,-99.99,,,-99.99,,2013-04-21 06:02:00,
2013-04-21 01:12:00,42.0,-99.9,-100.00,NNE,25,0.0,0.0,-999,-99.99,,,-99.99,,2013-04-21 06:12:00,
2013-04-21 01:22:00,42.0,-99.9,-100.00,NNE,25,0.0,0.0,-999,-99.99,,,-99.99,,2013-04-21 06:22:00,
2013-04-21 01:32:00,42.0,-99.9,-100.00,NNE,25,0.0,0.0,-999,-99.99,,,-99.99,,2013-04-21 06:32:00,
2013-04-21 01:42:00,42.0,-99.9,-100.00,NNE,25,0.0,0.0,-999,-99.99,,,-99.99,,2013-04-21 06:42:00,
2013-04-21 01:52:00,42.0,-99.9,-100.00,NNE,25,0.0,0.0,-999,-99.99,,,-99.99,,2013-04-21 06:52:00,
2013-04-21 02:02:00,42.0,-99.9,-100.00,NNE,25,0.0,0.0,-999,-99.99,,,-99.99,,2013-04-21 07:02:00,
2013-04-21 02:12:00,41.0,-99.9,-100.00,NNE,25,0.0,0.0,-999,-99.99,,,-99.99,,2013-04-21 07:12:00,
2013-04-21 02:22:00,41.0,-99.9,-100.00,NNE,25,0.0,0.0,-999,-99.99,,,-99.99,,2013-04-21 07:22:00,
2013-04-21 02:32:00,41.0,-99.9,-100.00,NNE,25,0.0,0.0,-999,-99.99,,,-99.99,,2013-04-21 07:32:00,
2013-04-21 02:42:00,41.0,-99.9,-100.00,NNE,25,0.0,0.0,-999,-99.99,,,-99.99,,2013-04-21 07:42:00,
2013-04-21 02:52:00,41.0,-99.9,-100.00,NNE,25,0.0,0.0,-999,-99.99,,,-99.99,,2013-04-21 07:52:00,
2013-04-21 03:02:00,41.0,-99.9,-100.00,NNE,25,0.0,0.0,-999,-99.99,,,-99.99,,2013-04-21 08:02:00,
2013-04-21 03:12:00,42.0,-99.9,-100.00,NNE,25,0.0,0.0,-999,-99.99,,,-99.99,,2013-04-21 08:12:00,
2013-04-21 03:22:00,42.0,-99.9,-100.00,NNE,25,0.0,0.0,-999,-99.99,,,-99.99,,2013-04-21 08:22:00,
2013-04-21 03:32:00,42.0,-99.9,-100.00,NNE,25,0.0,0.0,-999,-99.99,,,-99.99,,2013-04-21 08:32:00,
2013-04-21 03:42:00,42.0,-99.9,-100.00,NNE,25,0.0,0.0,-999,-99.99,,,-99.99,,2013-04-21 08:42:00,
2013-04-21 03:52:00,42.0,-99.9,-100.00,NNE,25,0.0,0.0,-999,-99.99,,,-99.99,,2013-04-21 08:52:00,
2013-04-21 04:02:00,42.0,-99.9,-100.00,NNE,25,0.0,0.0,-999,-99.99,,,-99.99,,2013-04-21 09:02:00,
2013-04-21 04:12:00,42.0,-99.9,-100.00,NNE,25,0.0,0.0,-999,-99.99,,,-99.99,,2013-04-21 09:12:00,
2013-04-21 04:22:00,42.0,-99.9,-100.00,NNE,25,0.0,0.0,-999,-99.99,,,-99.99,,2013-04-21 09:22:00,
2013-04-21 04:33:00,42.0,-99.9,-100.00,NNE,25,0.0,0.0,-999,-99.99,,,-99.99,,2013-04-21 09:33:00,
2013-04-21 04:43:00,42.0,-99.9,-100.00,NNE,25,0.0,0.0,-999,-99.99,,,-99.99,,2013-04-21 09:43:00,
2013-04-21 04:53:00,42.0,-99.9,-100.00,NNE,25,0.0,0.0,-999,-99.99,,,-99.99,,2013-04-21 09:53:00,
2013-04-21 05:03:00,41.0,-99.9,-100.00,NNE,25,0.0,0.0,-999,-99.99,,,-99.99,,2013-04-21 10:03:00,
2013-04-21 05:12:00,42.0,-99.9,-100.00,NNE,25,0.0,0.0,-999,-99.99,,,-99.99,,2013-04-21 10:12:00,
2013-04-21 05:22:00,42.0,-99.9,-100.00,NNE,25,0.0,0.0,-999,-99.99,,,-99.99,,2013-04-21 10:22:00,
2013-04-21 05:33:00,41.0,-99.9,-100.00,NNE,25,0.0,0.0,-999,-99.99,,,-99.99,,2013-04-21 10:33:00,
2013-04-21 05:42:00,41.0,-99.9,-100.00,NNE,25,0.0,0.0,-999,-99.99,,,-99.99,,2013-04-21 10:42:00,
2013-04-21 05:52:00,41.0,-99.9,-100.00,NNE,25,0.0,0.0,-999,-99.99,,,-99.99,,2013-04-21 10:52:00,
2013-04-21 06:03:00,41.0,-99.9,-100.00,NNE,25,0.0,0.0,-999,-99.99,,,-99.99,,2013-04-21 11:03:00,
2013-04-21 06:12:00,41.0,-99.9,-100.00,NNE,25,0.0,0.0,-999,-99.99,,,-99.99,,2013-04-21 11:12:00,
2013-04-21 06:22:00,41.0,-99.9,-100.00,NNE,25,0.0,0.0,-999,-99.99,,,-99.99,,2013-04-21 11:22:00,
2013-04-21 06:34:00,41.0,-99.9,-100.00,NNE,25,0.0,0.0,-999,-99.99,,,-99.99,,2013-04-21 11:34:00,
2013-04-21 06:42:00,41.0,-99.9,-100.00,NNE,25,0.0,0.0,-999,-99.99,,,-99.99,,2013-04-21 11:42:00,
2013-04-21 06:52:00,41.0,-99.9,-100.00,NNE,25,0.0,0.0,-999,-99.99,,,-99.99,,2013-04-21 11:52:00,
2013-04-21 07:03:00,41.0,-99.9,-100.00,NNE,25,0.0,0.0,-999,-99.99,,,-99.99,,2013-04-21 12:03:00,
2013-04-21 07:12:00,41.0,-99.9,-100.00,NNE,25,0.0,0.0,-999,-99.99,,,-99.99,,2013-04-21 12:12:00,
2013-04-21 07:22:00,41.0,-99.9,-100.00,NNE,25,0.0,0.0,-999,-99.99,,,-99.99,,2013-04-21 12:22:00,
2013-04-21 07:32:00,41.0,-99.9,-100.00,NNE,25,0.0,0.0,-999,-99.99,,,-99.99,,2013-04-21 12:32:00,
2013-04-21 07:42:00,41.0,-99.9,-100.00,NNE,25,0.0,0.0,-999,-99.99,,,-99.99,,2013-04-21 12:42:00,
2013-04-21 07:52:00,42.0,-99.9,-100.00,NNE,25,0.0,0.0,-999,-99.99,,,-99.99,,2013-04-21 12:52:00,
2013-04-21 08:02:00,45.0,-99.9,-100.00,NNE,25,0.0,0.0,-999,-99.99,,,-99.99,,2013-04-21 13:02:00,
2013-04-21 08:12:00,47.0,-99.9,-100.00,NNE,25,0.0,0.0,-999,-99.99,,,-99.99,,2013-04-21 13:12:00,
2013-04-21 08:22:00,47.0,-99.9,-100.00,NNE,25,0.0,0.0,-999,-99.99,,,-99.99,,2013-04-21 13:22:00,
2013-04-21 08:32:00,49.0,-99.9,-100.00,NNE,25,0.0,0.0,-999,-99.99,,,-99.99,,2013-04-21 13:32:00,
2013-04-21 08:42:00,49.0,-99.9,-100.00,NNE,25,0.0,0.0,-999,-99.99,,,-99.99,,2013-04-21 13:42:00,
2013-04-21 08:52:00,52.0,-99.9,-100.00,NNE,25,0.0,0.0,-999,-99.99,,,-99.99,,2013-04-21 13:52:00,
2013-04-21 09:02:00,53.0,-99.9,-100.00,NNE,25,0.0,0.0,-999,-99.99,,,-99.99,,2013-04-21 14:02:00,
2013-04-21 09:12:00,53.0,-99.9,-100.00,NNE,25,0.0,0.0,-999,-99.99,,,-99.99,,2013-04-21 14:12:00,
2013-04-21 09:22:00,55.0,-99.9,-100.00,NNE,25,0.0,0.0,-999,-99.99,,,-99.99,,2013-04-21 14:22:00,
2013-04-21 09:32:00,56.0,-99.9,-100.00,NNE,25,0.0,0.0,-999,-99.99,,,-99.99,,2013-04-21 14:32:00,
2013-04-21 09:42:00,56.0,-99.9,-100.00,NNE,25,0.0,0.0,-999,-99.99,,,-99.99,,2013-04-21 14:42:00,
2013-04-21 09:52:00,58.0,-99.9,-100.00,North,8,1.0,0.0,-999,-99.99,,,-99.99,,2013-04-21 14:52:00,
2013-04-21 10:02:00,60.0,-99.9,-100.00,NE,53,1.0,3.0,-999,-99.99,,,-99.99,,2013-04-21 15:02:00,
2013-04-21 10:12:00,60.0,-99.9,-100.00,NE,53,1.0,3.0,-999,-99.99,,,-99.99,,2013-04-21 15:12:00,
2013-04-21 10:22:00,61.0,-99.9,-100.00,ENE,67,2.0,4.0,-999,-99.99,,,-99.99,,2013-04-21 15:22:00,
2013-04-21 10:33:00,62.0,-99.9,-100.00,NE,36,0.0,4.0,-999,-99.99,,,-99.99,,2013-04-21 15:33:00,
2013-04-21 10:43:00,62.0,-99.9,-100.00,NE,36,0.0,4.0,-999,-99.99,,,-99.99,,2013-04-21 15:43:00,
2013-04-21 10:53:00,65.0,-99.9,-100.00,ENE,61,2.0,3.0,-999,-99.99,,,-99.99,,2013-04-21 15:53:00,
2013-04-21 11:03:00,66.0,-99.9,-100.00,NNE,23,0.0,2.0,-999,-99.99,,,-99.99,,2013-04-21 16:03:00,
2013-04-21 11:13:00,67.0,-99.9,-100.00,ESE,106,0.0,6.0,-999,-99.99,,,-99.99,,2013-04-21 16:13:00,
2013-04-21 11:23:00,67.0,-99.9,-100.00,ESE,106,0.0,6.0,-999,-99.99,,,-99.99,,2013-04-21 16:23:00,
2013-04-21 11:33:00,67.0,-99.9,-100.00,ESE,106,0.0,6.0,-999,-99.99,,,-99.99,,2013-04-21 16:33:00,
2013-04-21 11:42:00,67.0,-99.9,-100.00,ESE,106,0.0,6.0,-999,-99.99,,,-99.99,,2013-04-21 16:42:00,
2013-04-21 11:53:00,69.0,-99.9,-100.00,ESE,104,0.0,4.0,-999,-99.99,,,-99.99,,2013-04-21 16:53:00,
2013-04-21 12:02:00,69.0,-99.9,-100.00,NE,45,1.0,4.0,-999,-99.99,,,-99.99,,2013-04-21 17:02:00,
2013-04-21 12:12:00,69.0,-99.9,-100.00,North,352,0.0,4.0,-999,-99.99,,,-99.99,,2013-04-21 17:12:00,
2013-04-21 12:23:00,69.0,-99.9,-100.00,North,352,0.0,4.0,-999,-99.99,,,-99.99,,2013-04-21 17:23:00,
2013-04-21 12:32:00,69.0,-99.9,-100.00,North,352,0.0,4.0,-999,-99.99,,,-99.99,,2013-04-21 17:32:00,
2013-04-21 12:42:00,69.0,-99.9,-100.00,North,352,0.0,4.0,-999,-99.99,,,-99.99,,2013-04-21 17:42:00,
2013-04-21 12:52:00,70.0,-99.9,-100.00,NNE,12,2.0,4.0,-999,-99.99,,,-99.99,,2013-04-21 17:52:00,
2013-04-21 13:03:00,70.0,-99.9,-100.00,NNE,12,2.0,4.0,-999,-99.99,,,-99.99,,2013-04-21 18:03:00,
2013-04-21 13:11:00,70.0,-99.9,-100.00,NNE,12,2.0,4.0,-999,-99.99,,,-99.99,,2013-04-21 18:11:00,
2013-04-21 13:22:00,72.0,-99.9,-100.00,North,9,0.0,0.0,-999,-99.99,,,-99.99,,2013-04-21 18:22:00,
2013-04-21 13:33:00,72.0,-99.9,-100.00,North,9,0.0,0.0,-999,-99.99,,,-99.99,,2013-04-21 18:33:00,
2013-04-21 13:42:00,72.0,-99.9,-100.00,North,9,0.0,0.0,-999,-99.99,,,-99.99,,2013-04-21 18:42:00,
2013-04-21 13:52:00,73.0,-99.9,-100.00,East,81,1.0,0.0,-999,-99.99,,,-99.99,,2013-04-21 18:52:00,
2013-04-21 14:02:00,73.0,-99.9,-100.00,North,4,0.0,2.0,-999,-99.99,,,-99.99,,2013-04-21 19:02:00,
2013-04-21 14:12:00,73.0,-99.9,-100.00,North,4,0.0,2.0,-999,-99.99,,,-99.99,,2013-04-21 19:12:00,
2013-04-21 14:22:00,74.0,-99.9,-100.00,ESE,112,0.0,0.0,-999,-99.99,,,-99.99,,2013-04-21 19:22:00,
2013-04-21 14:32:00,74.0,-99.9,-100.00,ESE,112,0.0,0.0,-999,-99.99,,,-99.99,,2013-04-21 19:32:00,
2013-04-21 14:43:00,74.0,-99.9,-100.00,ESE,112,0.0,0.0,-999,-99.99,,,-99.99,,2013-04-21 19:43:00,
2013-04-21 14:52:00,72.0,-99.9,-100.00,NW,326,0.0,2.0,-999,-99.99,,,-99.99,,2013-04-21 19:52:00,
2013-04-21 15:02:00,73.0,-99.9,-100.00,NE,56,1.0,2.0,-999,-99.99,,,-99.99,,2013-04-21 20:02:00,
2013-04-21 15:12:00,73.0,-99.9,-100.00,NE,56,1.0,2.0,-999,-99.99,,,-99.99,,2013-04-21 20:12:00,
2013-04-21 15:22:00,74.0,-99.9,-100.00,East,95,0.0,3.0,-999,-99.99,,,-99.99,,2013-04-21 20:22:00,
2013-04-21 15:32:00,74.0,-99.9,-100.00,East,95,0.0,3.0,-999,-99.99,,,-99.99,,2013-04-21 20:32:00,
2013-04-21 15:42:00,74.0,-99.9,-100.00,East,95,0.0,3.0,-999,-99.99,,,-99.99,,2013-04-21 20:42:00,
2013-04-21 15:52:00,72.0,-99.9,-100.00,NNE,25,1.0,3.0,-999,-99.99,,,-99.99,,2013-04-21 20:52:00,
2013-04-21 16:02:00,72.0,-99.9,-100.00,NNE,25,1.0,3.0,-999,-99.99,,,-99.99,,2013-04-21 21:02:00,
2013-04-21 16:12:00,72.0,-99.9,-100.00,NNE,25,1.0,3.0,-999,-99.99,,,-99.99,,2013-04-21 21:12:00,
2013-04-21 16:33:00,72.0,-99.9,-100.00,NW,319,1.0,0.0,-999,-99.99,,,-99.99,,2013-04-21 21:33:00,
2013-04-21 16:43:00,72.0,-99.9,-100.00,NW,319,1.0,0.0,-999,-99.99,,,-99.99,,2013-04-21 21:43:00,
2013-04-21 16:53:00,72.0,-99.9,-100.00,NE,42,0.0,0.0,-999,-99.99,,,-99.99,,2013-04-21 21:53:00,
2013-04-21 17:03:00,71.0,-99.9,-100.00,East,82,2.0,0.0,-999,-99.99,,,-99.99,,2013-04-21 22:03:00,
2013-04-21 17:12:00,71.0,-99.9,-100.00,NNE,25,0.0,0.0,-999,-99.99,,,-99.99,,2013-04-21 22:12:00,
2013-04-21 17:22:00,71.0,-99.9,-100.00,NNE,25,0.0,0.0,-999,-99.99,,,-99.99,,2013-04-21 22:22:00,
2013-04-21 17:33:00,71.0,-99.9,-100.00,NNE,25,0.0,0.0,-999,-99.99,,,-99.99,,2013-04-21 22:33:00,
2013-04-21 17:43:00,71.0,-99.9,-100.00,NNE,25,0.0,0.0,-999,-99.99,,,-99.99,,2013-04-21 22:43:00,
2013-04-21 17:53:00,71.0,-99.9,-100.00,NE,47,0.0,2.0,-999,-99.99,,,-99.99,,2013-04-21 22:53:00,
2013-04-21 18:02:00,71.0,-99.9,-100.00,NNE,25,0.0,2.0,-999,-99.99,,,-99.99,,2013-04-21 23:02:00,
2013-04-21 18:12:00,71.0,-99.9,-100.00,NNE,25,0.0,2.0,-999,-99.99,,,-99.99,,2013-04-21 23:12:00,
2013-04-21 18:23:00,70.0,-99.9,-100.00,NE,46,0.0,0.0,-999,-99.99,,,-99.99,,2013-04-21 23:23:00,
2013-04-21 18:32:00,70.0,-99.9,-100.00,NNE,30,0.0,2.0,-999,-99.99,,,-99.99,,2013-04-21 23:32:00,
2013-04-21 18:43:00,70.0,-99.9,-100.00,NNE,30,0.0,2.0,-999,-99.99,,,-99.99,,2013-04-21 23:43:00,
2013-04-21 18:52:00,68.0,-99.9,-100.00,NNE,30,0.0,0.0,-999,-99.99,,,-99.99,,2013-04-21 23:52:00,
2013-04-21 19:02:00,68.0,-99.9,-100.00,NNE,30,0.0,0.0,-999,-99.99,,,-99.99,,2013-04-22 00:02:00,
2013-04-21 19:12:00,68.0,-99.9,-100.00,NNE,30,0.0,0.0,-999,-99.99,,,-99.99,,2013-04-22 00:12:00,
2013-04-21 19:22:00,66.0,-99.9,-100.00,NNE,30,0.0,0.0,-999,-99.99,,,-99.99,,2013-04-22 00:22:00,
2013-04-21 19:32:00,64.0,-99.9,-100.00,NNE,30,0.0,0.0,-999,-99.99,,,-99.99,,2013-04-22 00:32:00,
2013-04-21 19:42:00,64.0,-99.9,-100.00,NNE,30,0.0,0.0,-999,-99.99,,,-99.99,,2013-04-22 00:42:00,
2013-04-21 19:52:00,62.0,-99.9,-100.00,NNE,30,0.0,0.0,-999,-99.99,,,-99.99,,2013-04-22 00:52:00,
2013-04-21 20:02:00,62.0,-99.9,-100.00,NNE,30,0.0,0.0,-999,-99.99,,,-99.99,,2013-04-22 01:02:00,
2013-04-21 20:12:00,62.0,-99.9,-100.00,NNE,30,0.0,0.0,-999,-99.99,,,-99.99,,2013-04-22 01:12:00,
2013-04-21 20:22:00,61.0,-99.9,-100.00,NNE,30,0.0,0.0,-999,-99.99,,,-99.99,,2013-04-22 01:22:00,
2013-04-21 20:32:00,59.0,-99.9,-100.00,NNE,30,0.0,0.0,-999,-99.99,,,-99.99,,2013-04-22 01:32:00,
2013-04-21 20:42:00,59.0,-99.9,-100.00,NNE,30,0.0,0.0,-999,-99.99,,,-99.99,,2013-04-22 01:42:00,
2013-04-21 20:52:00,58.0,-99.9,-100.00,NNE,30,0.0,0.0,-999,-99.99,,,-99.99,,2013-04-22 01:52:00,
2013-04-21 21:02:00,57.0,-99.9,-100.00,NNE,30,0.0,0.0,-999,-99.99,,,-99.99,,2013-04-22 02:02:00,
2013-04-21 21:12:00,55.0,-99.9,-100.00,NNE,30,0.0,0.0,-999,-99.99,,,-99.99,,2013-04-22 02:12:00,
2013-04-21 21:22:00,55.0,-99.9,-100.00,NNE,30,0.0,0.0,-999,-99.99,,,-99.99,,2013-04-22 02:22:00,
2013-04-21 21:32:00,55.0,-99.9,-100.00,NNE,30,0.0,0.0,-999,-99.99,,,-99.99,,2013-04-22 02:32:00,
2013-04-21 21:42:00,55.0,-99.9,-100.00,NNE,30,0.0,0.0,-999,-99.99,,,-99.99,,2013-04-22 02:42:00,
2013-04-21 21:52:00,54.0,-99.9,-100.00,NNE,30,0.0,0.0,-999,-99.99,,,-99.99,,2013-04-22 02:52:00,
2013-04-21 22:02:00,54.0,-99.9,-100.00,NNE,30,0.0,0.0,-999,-99.99,,,-99.99,,2013-04-22 03:02:00,
2013-04-21 22:11:00,54.0,-99.9,-100.00,NNE,30,0.0,0.0,-999,-99.99,,,-99.99,,2013-04-22 03:11:00,
2013-04-21 22:22:00,54.0,-99.9,-100.00,NNE,30,0.0,0.0,-999,-99.99,,,-99.99,,2013-04-22 03:22:00,
2013-04-21 22:33:00,53.0,-99.9,-100.00,NNE,30,0.0,0.0,-999,-99.99,,,-99.99,,2013-04-22 03:33:00,
2013-04-21 22:43:00,53.0,-99.9,-100.00,NNE,30,0.0,0.0,-999,-99.99,,,-99.99,,2013-04-22 03:43:00,
2013-04-21 22:53:00,52.0,-99.9,-100.00,NNE,30,0.0,0.0,-999,-99.99,,,-99.99,,2013-04-22 03:53:00,
2013-04-21 23:03:00,52.0,-99.9,-100.00,NNE,30,0.0,0.0,-999,-99.99,,,-99.99,,2013-04-22 04:03:00,
2013-04-21 23:13:00,52.0,-99.9,-100.00,NNE,30,0.0,0.0,-999,-99.99,,,-99.99,,2013-04-22 04:13:00,
2013-04-21 23:23:00,51.0,-99.9,-100.00,NNE,30,0.0,0.0,-999,-99.99,,,-99.99,,2013-04-22 04:23:00,
2013-04-21 23:33:00,51.0,-99.9,-100.00,NNE,30,0.0,0.0,-999,-99.99,,,-99.99,,2013-04-22 04:33:00,
2013-04-21 23:43:00,51.0,-99.9,-100.00,NNE,30,0.0,0.0,-999,-99.99,,,-99.99,,2013-04-22 04:43:00,
2013-04-21 23:53:00,51.0,-99.9,-100.00,NNE,30,0.0,0.0,-999,-99.99,,,-99.99,,2013-04-22 04:53:00,